Time,TemperatureF,DewpointF,PressureIn,WindDirection,WindDirectionDegrees,WindSpeedMPH,WindSpeedGustMPH,Humidity,HourlyPrecipIn,Conditions,Clouds,dailyrainin,SoftwareType,DateUTC
2013-06-03 00:00:00,60.0,15.1,25.12,West,265,0.0,3.0,17,0.00,,,0.00,VWS V14.01,2013-06-03 07:00:00,
2013-06-03 00:02:00,60.0,15.1,25.12,WNW,294,1.0,3.0,17,0.00,,,0.00,VWS V14.01,2013-06-03 07:02:00,
2013-06-03 00:07:00,60.0,15.1,25.12,WNW,292,1.0,3.0,17,0.00,,,0.00,VWS V14.01,2013-06-03 07:07:00,
2013-06-03 00:12:00,60.0,15.1,25.12,WNW,292,0.0,3.0,17,0.00,,,0.00,VWS V14.01,2013-06-03 07:12:00,
2013-06-03 00:17:00,59.9,15.0,25.12,WNW,288,2.0,4.0,17,0.00,,,0.00,VWS V14.01,2013-06-03 07:17:00,
2013-06-03 00:22:00,59.9,15.0,25.12,NW,309,3.0,4.0,17,0.00,,,0.00,VWS V14.01,2013-06-03 07:22:00,
2013-06-03 00:27:00,60.0,15.1,25.12,NW,315,0.0,5.0,17,0.00,,,0.00,VWS V14.01,2013-06-03 07:27:00,
2013-06-03 00:30:00,60.0,15.1,25.12,NW,315,2.0,5.0,17,0.00,,,0.00,VWS V14.01,2013-06-03 07:30:00,
2013-06-03 00:32:00,60.0,15.1,25.12,NW,315,0.0,3.0,17,0.00,,,0.00,VWS V14.01,2013-06-03 07:32:00,
2013-06-03 00:37:00,60.0,15.1,25.12,NW,313,1.0,3.0,17,0.00,,,0.00,VWS V14.01,2013-06-03 07:37:00,
2013-06-03 00:42:00,60.0,15.1,25.12,NW,313,0.0,3.0,17,0.00,,,0.00,VWS V14.01,2013-06-03 07:42:00,
2013-06-03 00:47:00,60.0,15.1,25.12,NW,313,0.0,3.0,17,0.00,,,0.00,VWS V14.01,2013-06-03 07:47:00,
2013-06-03 00:52:00,60.0,15.1,25.12,NW,311,2.0,3.0,17,0.00,,,0.00,VWS V14.01,2013-06-03 07:52:00,
2013-06-03 00:57:00,60.0,15.1,25.12,NW,311,0.0,3.0,17,0.00,,,0.00,VWS V14.01,2013-06-03 07:57:00,
2013-06-03 01:00:00,60.0,15.1,25.12,NW,311,0.0,3.0,17,0.00,,,0.00,VWS V14.01,2013-06-03 08:00:00,
2013-06-03 01:02:00,60.0,15.1,25.12,NW,311,1.0,2.0,17,0.00,,,0.00,VWS V14.01,2013-06-03 08:02:00,
2013-06-03 01:07:00,60.0,15.1,25.12,NW,311,1.0,2.0,17,0.00,,,0.00,VWS V14.01,2013-06-03 08:07:00,
2013-06-03 01:12:00,60.1,15.2,25.12,NW,311,0.0,2.0,17,0.00,,,0.00,VWS V14.01,2013-06-03 08:12:00,
2013-06-03 01:17:00,60.1,15.2,25.12,NW,311,0.0,2.0,17,0.00,,,0.00,VWS V14.01,2013-06-03 08:17:00,
2013-06-03 01:22:00,60.1,15.2,25.12,NW,311,0.0,2.0,17,0.00,,,0.00,VWS V14.01,2013-06-03 08:22:00,
2013-06-03 01:27:00,60.1,15.2,25.12,NW,311,0.0,2.0,17,0.00,,,0.00,VWS V14.01,2013-06-03 08:27:00,
2013-06-03 01:30:00,60.1,15.2,25.12,NW,311,0.0,2.0,17,0.00,,,0.00,VWS V14.01,2013-06-03 08:30:00,
2013-06-03 01:32:00,60.1,15.2,25.12,NW,311,0.0,0.0,17,0.00,,,0.00,VWS V14.01,2013-06-03 08:32:00,
2013-06-03 01:37:00,60.1,15.2,25.12,NW,311,0.0,0.0,17,0.00,,,0.00,VWS V14.01,2013-06-03 08:37:00,
2013-06-03 01:42:00,60.2,15.2,25.12,NW,311,0.0,0.0,17,0.00,,,0.00,VWS V14.01,2013-06-03 08:42:00,
2013-06-03 01:47:00,60.2,15.2,25.12,NW,311,0.0,0.0,17,0.00,,,0.00,VWS V14.01,2013-06-03 08:47:00,
2013-06-03 01:52:00,60.3,15.3,25.12,NW,311,0.0,0.0,17,0.00,,,0.00,VWS V14.01,2013-06-03 08:52:00,
2013-06-03 01:57:00,60.2,15.2,25.12,NW,311,0.0,0.0,17,0.00,,,0.00,VWS V14.01,2013-06-03 08:57:00,
2013-06-03 02:00:00,60.2,15.2,25.12,NW,311,0.0,0.0,17,0.00,,,0.00,VWS V14.01,2013-06-03 09:00:00,
2013-06-03 02:02:00,60.2,15.2,25.12,NW,311,0.0,0.0,17,0.00,,,0.00,VWS V14.01,2013-06-03 09:02:00,
2013-06-03 02:07:00,60.2,15.2,25.12,NW,311,0.0,0.0,17,0.00,,,0.00,VWS V14.01,2013-06-03 09:07:00,
2013-06-03 02:12:00,60.2,15.2,25.12,NW,311,0.0,0.0,17,0.00,,,0.00,VWS V14.01,2013-06-03 09:12:00,
2013-06-03 02:17:00,60.2,15.2,25.12,NW,311,0.0,0.0,17,0.00,,,0.00,VWS V14.01,2013-06-03 09:17:00,
2013-06-03 02:22:00,60.3,15.3,25.12,NW,311,0.0,0.0,17,0.00,,,0.00,VWS V14.01,2013-06-03 09:22:00,
2013-06-03 02:27:00,60.3,15.3,25.12,NW,311,0.0,0.0,17,0.00,,,0.00,VWS V14.01,2013-06-03 09:27:00,
2013-06-03 02:30:00,60.3,15.3,25.12,NW,311,0.0,0.0,17,0.00,,,0.00,VWS V14.01,2013-06-03 09:30:00,
2013-06-03 02:32:00,60.3,15.3,25.12,NW,311,0.0,0.0,17,0.00,,,0.00,VWS V14.01,2013-06-03 09:32:00,
2013-06-03 02:37:00,60.3,15.3,25.12,NW,311,0.0,0.0,17,0.00,,,0.00,VWS V14.01,2013-06-03 09:37:00,
2013-06-03 02:42:00,60.4,15.4,25.12,NW,311,0.0,0.0,17,0.00,,,0.00,VWS V14.01,2013-06-03 09:42:00,
2013-06-03 02:47:00,60.4,15.4,25.12,NW,311,0.0,0.0,17,0.00,,,0.00,VWS V14.01,2013-06-03 09:47:00,
2013-06-03 02:52:00,60.5,15.5,25.12,NW,311,0.0,0.0,17,0.00,,,0.00,VWS V14.01,2013-06-03 09:52:00,
2013-06-03 02:57:00,60.5,15.5,25.12,NW,311,0.0,0.0,17,0.00,,,0.00,VWS V14.01,2013-06-03 09:57:00,
2013-06-03 03:00:00,60.5,15.5,25.12,NW,311,0.0,0.0,17,0.00,,,0.00,VWS V14.01,2013-06-03 10:00:00,
2013-06-03 03:02:00,60.5,15.5,25.12,NW,311,0.0,0.0,17,0.00,,,0.00,VWS V14.01,2013-06-03 10:02:00,
2013-06-03 03:07:00,60.5,15.5,25.12,NW,311,0.0,0.0,17,0.00,,,0.00,VWS V14.01,2013-06-03 10:07:00,
2013-06-03 03:12:00,60.5,15.5,25.12,NW,311,0.0,0.0,17,0.00,,,0.00,VWS V14.01,2013-06-03 10:12:00,
2013-06-03 03:17:00,60.5,15.5,25.12,NW,311,0.0,0.0,17,0.00,,,0.00,VWS V14.01,2013-06-03 10:17:00,
2013-06-03 03:22:00,60.5,15.5,25.12,NW,311,0.0,0.0,17,0.00,,,0.00,VWS V14.01,2013-06-03 10:22:00,
2013-06-03 03:27:00,60.6,15.6,25.12,NW,311,0.0,0.0,17,0.00,,,0.00,VWS V14.01,2013-06-03 10:27:00,
2013-06-03 03:30:00,60.6,15.6,25.12,NW,311,0.0,0.0,17,0.00,,,0.00,VWS V14.01,2013-06-03 10:30:00,
2013-06-03 03:32:00,60.6,15.6,22.52,NW,311,0.0,1.0,17,0.00,,,0.00,VWS V14.01,2013-06-03 10:32:00,
2013-06-03 03:37:00,60.5,15.5,22.52,NW,311,0.0,1.0,17,0.00,,,0.00,VWS V14.01,2013-06-03 10:37:00,
2013-06-03 03:42:00,60.4,15.4,22.52,NW,311,0.0,1.0,17,0.00,,,0.00,VWS V14.01,2013-06-03 10:42:00,
2013-06-03 03:47:00,60.4,15.4,22.52,NW,311,0.0,1.0,17,0.00,,,0.00,VWS V14.01,2013-06-03 10:47:00,
2013-06-03 03:52:00,60.4,15.4,22.52,NW,311,0.0,1.0,17,0.00,,,0.00,VWS V14.01,2013-06-03 10:52:00,
2013-06-03 03:57:00,60.5,15.5,22.52,NW,311,1.0,1.0,17,0.00,,,0.00,VWS V14.01,2013-06-03 10:57:00,
2013-06-03 04:00:00,60.5,15.5,22.52,NW,311,0.0,1.0,17,0.00,,,0.00,VWS V14.01,2013-06-03 11:00:00,
2013-06-03 04:02:00,60.6,15.6,22.52,NW,311,0.0,1.0,17,0.00,,,0.00,VWS V14.01,2013-06-03 11:02:00,
2013-06-03 04:07:00,60.7,15.7,22.52,NW,310,2.0,3.0,17,0.00,,,0.00,VWS V14.01,2013-06-03 11:07:00,
2013-06-03 04:12:00,60.7,15.7,22.52,NW,307,0.0,3.0,17,0.00,,,0.00,VWS V14.01,2013-06-03 11:12:00,
2013-06-03 04:17:00,60.6,15.6,22.52,WNW,296,1.0,4.0,17,0.00,,,0.00,VWS V14.01,2013-06-03 11:17:00,
2013-06-03 04:22:00,60.5,15.5,22.52,WNW,296,0.0,4.0,17,0.00,,,0.00,VWS V14.01,2013-06-03 11:22:00,
2013-06-03 04:27:00,60.5,15.5,22.52,WNW,296,0.0,4.0,17,0.00,,,0.00,VWS V14.01,2013-06-03 11:27:00,
2013-06-03 04:30:00,60.4,15.4,22.52,WNW,296,2.0,4.0,17,0.00,,,0.00,VWS V14.01,2013-06-03 11:30:00,
2013-06-03 04:32:00,60.3,15.3,22.52,WNW,290,0.0,4.0,17,0.00,,,0.00,VWS V14.01,2013-06-03 11:32:00,
2013-06-03 04:37:00,60.3,15.3,22.92,WNW,290,0.0,4.0,17,0.00,,,0.00,VWS V14.01,2013-06-03 11:37:00,
2013-06-03 04:42:00,60.3,15.3,22.92,WNW,290,0.0,4.0,17,0.00,,,0.00,VWS V14.01,2013-06-03 11:42:00,
2013-06-03 04:47:00,60.2,15.2,22.92,WNW,290,1.0,4.0,17,0.00,,,0.00,VWS V14.01,2013-06-03 11:47:00,
2013-06-03 04:52:00,60.2,15.2,22.92,WNW,290,0.0,4.0,17,0.00,,,0.00,VWS V14.01,2013-06-03 11:52:00,
2013-06-03 04:57:00,60.2,15.2,22.92,WNW,290,0.0,4.0,17,0.00,,,0.00,VWS V14.01,2013-06-03 11:57:00,
2013-06-03 05:00:00,60.2,15.2,22.92,WNW,290,0.0,4.0,17,0.00,,,0.00,VWS V14.01,2013-06-03 12:00:00,
2013-06-03 05:02:00,60.2,15.2,22.92,WNW,290,0.0,1.0,17,0.00,,,0.00,VWS V14.01,2013-06-03 12:02:00,
2013-06-03 05:07:00,60.2,15.2,23.84,WNW,290,0.0,1.0,17,0.00,,,0.00,VWS V14.01,2013-06-03 12:07:00,
2013-06-03 05:12:00,60.3,15.3,23.84,WNW,290,0.0,1.0,17,0.00,,,0.00,VWS V14.01,2013-06-03 12:12:00,
2013-06-03 05:17:00,60.3,15.3,23.84,WNW,290,0.0,1.0,17,0.00,,,0.00,VWS V14.01,2013-06-03 12:17:00,
2013-06-03 05:22:00,60.3,15.3,23.84,WNW,290,0.0,1.0,17,0.00,,,0.00,VWS V14.01,2013-06-03 12:22:00,
2013-06-03 05:27:00,60.4,15.4,23.84,WNW,290,0.0,1.0,17,0.00,,,0.00,VWS V14.01,2013-06-03 12:27:00,
2013-06-03 05:30:00,60.4,15.4,23.84,WNW,290,0.0,1.0,17,0.00,,,0.00,VWS V14.01,2013-06-03 12:30:00,
2013-06-03 05:32:00,60.4,15.4,23.84,WNW,290,0.0,0.0,17,0.00,,,0.00,VWS V14.01,2013-06-03 12:32:00,
2013-06-03 05:37:00,60.5,15.5,23.84,WNW,290,1.0,1.0,17,0.00,,,0.00,VWS V14.01,2013-06-03 12:37:00,
2013-06-03 05:42:00,60.5,15.5,23.84,WNW,290,0.0,1.0,17,0.00,,,0.00,VWS V14.01,2013-06-03 12:42:00,
2013-06-03 05:47:00,60.6,15.6,23.84,WNW,290,0.0,1.0,17,0.00,,,0.00,VWS V14.01,2013-06-03 12:47:00,
2013-06-03 05:52:00,60.6,15.6,23.84,WNW,290,0.0,1.0,17,0.00,,,0.00,VWS V14.01,2013-06-03 12:52:00,
2013-06-03 05:57:00,60.7,15.7,23.84,WNW,290,0.0,2.0,17,0.00,,,0.00,VWS V14.01,2013-06-03 12:57:00,
2013-06-03 06:00:00,60.7,15.7,23.84,WNW,290,0.0,2.0,17,0.00,,,0.00,VWS V14.01,2013-06-03 13:00:00,
2013-06-03 06:02:00,60.7,15.7,23.84,WNW,290,0.0,0.0,17,0.00,,,0.00,VWS V14.01,2013-06-03 13:02:00,
2013-06-03 06:07:00,60.8,15.7,23.84,WNW,290,0.0,2.0,17,0.00,,,0.00,VWS V14.01,2013-06-03 13:07:00,
2013-06-03 06:12:00,60.9,15.8,23.84,WNW,290,0.0,2.0,17,0.00,,,0.00,VWS V14.01,2013-06-03 13:12:00,
2013-06-03 06:17:00,60.9,15.8,23.84,WNW,290,0.0,2.0,17,0.00,,,0.00,VWS V14.01,2013-06-03 13:17:00,
2013-06-03 06:22:00,60.9,15.8,23.84,WNW,290,0.0,2.0,17,0.00,,,0.00,VWS V14.01,2013-06-03 13:22:00,
2013-06-03 06:27:00,61.0,15.9,23.84,WNW,290,0.0,2.0,17,0.00,,,0.00,VWS V14.01,2013-06-03 13:27:00,
2013-06-03 06:30:00,61.0,15.9,23.84,WNW,290,0.0,2.0,17,0.00,,,0.00,VWS V14.01,2013-06-03 13:30:00,
2013-06-03 06:32:00,61.1,16.0,23.84,WNW,290,0.0,0.0,17,0.00,,,0.00,VWS V14.01,2013-06-03 13:32:00,
2013-06-03 06:37:00,61.1,16.0,23.84,WNW,290,0.0,0.0,17,0.00,,,0.00,VWS V14.01,2013-06-03 13:37:00,
2013-06-03 06:42:00,61.1,16.0,23.84,WNW,290,0.0,0.0,17,0.00,,,0.00,VWS V14.01,2013-06-03 13:42:00,
2013-06-03 06:47:00,61.2,16.1,23.84,WNW,290,0.0,0.0,17,0.00,,,0.00,VWS V14.01,2013-06-03 13:47:00,
2013-06-03 06:52:00,61.3,16.1,23.84,WNW,290,0.0,0.0,17,0.00,,,0.00,VWS V14.01,2013-06-03 13:52:00,
2013-06-03 06:57:00,61.4,16.2,23.84,WNW,290,0.0,0.0,17,0.00,,,0.00,VWS V14.01,2013-06-03 13:57:00,
2013-06-03 07:00:00,61.4,16.2,23.84,WNW,290,0.0,0.0,17,0.00,,,0.00,VWS V14.01,2013-06-03 14:00:00,
2013-06-03 07:02:00,61.5,16.3,23.84,WNW,290,0.0,0.0,17,0.00,,,0.00,VWS V14.01,2013-06-03 14:02:00,
2013-06-03 07:07:00,61.6,16.4,23.84,WNW,290,0.0,0.0,17,0.00,,,0.00,VWS V14.01,2013-06-03 14:07:00,
2013-06-03 07:12:00,61.7,16.5,23.84,WNW,290,0.0,0.0,17,0.00,,,0.00,VWS V14.01,2013-06-03 14:12:00,
2013-06-03 07:17:00,61.8,16.5,23.84,WNW,290,0.0,0.0,17,0.00,,,0.00,VWS V14.01,2013-06-03 14:17:00,
2013-06-03 07:22:00,61.9,16.6,23.84,WNW,290,0.0,0.0,17,0.00,,,0.00,VWS V14.01,2013-06-03 14:22:00,
2013-06-03 07:27:00,62.0,16.7,23.84,WNW,290,0.0,0.0,17,0.00,,,0.00,VWS V14.01,2013-06-03 14:27:00,
2013-06-03 07:30:00,62.0,16.7,23.84,WNW,290,0.0,0.0,17,0.00,,,0.00,VWS V14.01,2013-06-03 14:30:00,
2013-06-03 07:32:00,62.1,16.8,23.84,WNW,290,0.0,0.0,17,0.00,,,0.00,VWS V14.01,2013-06-03 14:32:00,
2013-06-03 07:37:00,62.1,16.8,23.84,WNW,290,0.0,0.0,17,0.00,,,0.00,VWS V14.01,2013-06-03 14:37:00,
2013-06-03 07:42:00,62.3,17.0,23.84,WNW,290,0.0,0.0,17,0.00,,,0.00,VWS V14.01,2013-06-03 14:42:00,
2013-06-03 07:47:00,62.4,17.0,23.84,WNW,290,0.0,0.0,17,0.00,,,0.00,VWS V14.01,2013-06-03 14:47:00,
2013-06-03 07:52:00,62.7,15.9,23.84,WNW,290,0.0,0.0,16,0.00,,,0.00,VWS V14.01,2013-06-03 14:52:00,
2013-06-03 07:57:00,62.9,16.0,23.84,WNW,290,0.0,0.0,16,0.00,,,0.00,VWS V14.01,2013-06-03 14:57:00,
2013-06-03 08:00:00,62.9,16.0,23.84,WNW,290,0.0,0.0,16,0.00,,,0.00,VWS V14.01,2013-06-03 15:00:00,
2013-06-03 08:02:00,62.9,16.0,23.84,WNW,290,0.0,0.0,16,0.00,,,0.00,VWS V14.01,2013-06-03 15:02:00,
2013-06-03 08:07:00,63.2,16.3,23.84,WNW,290,0.0,2.0,16,0.00,,,0.00,VWS V14.01,2013-06-03 15:07:00,
2013-06-03 08:12:00,63.4,16.5,23.84,WSW,254,0.0,2.0,16,0.00,,,0.00,VWS V14.01,2013-06-03 15:12:00,
2013-06-03 08:17:00,63.7,16.7,23.84,SSE,150,2.0,4.0,16,0.00,,,0.00,VWS V14.01,2013-06-03 15:17:00,
2013-06-03 08:22:00,63.8,16.8,23.84,ESE,107,2.0,4.0,16,0.00,,,0.00,VWS V14.01,2013-06-03 15:22:00,
2013-06-03 08:27:00,64.0,16.9,23.84,ESE,106,0.0,4.0,16,0.00,,,0.00,VWS V14.01,2013-06-03 15:27:00,
2013-06-03 08:30:00,64.1,17.0,23.84,ESE,107,0.0,4.0,16,0.00,,,0.00,VWS V14.01,2013-06-03 15:30:00,
2013-06-03 08:32:00,64.3,17.2,23.84,East,95,1.0,5.0,16,0.00,,,0.00,VWS V14.01,2013-06-03 15:32:00,
2013-06-03 08:37:00,64.4,17.3,23.84,East,90,4.0,5.0,16,0.00,,,0.00,VWS V14.01,2013-06-03 15:37:00,
2013-06-03 08:42:00,64.7,17.5,23.84,East,90,0.0,5.0,16,0.00,,,0.00,VWS V14.01,2013-06-03 15:42:00,
2013-06-03 08:47:00,65.0,19.2,23.84,East,89,0.0,5.0,17,0.00,,,0.00,VWS V14.01,2013-06-03 15:47:00,
2013-06-03 08:52:00,65.2,20.7,23.84,East,90,0.0,5.0,18,0.00,,,0.00,VWS V14.01,2013-06-03 15:52:00,
2013-06-03 08:57:00,65.6,21.0,23.84,East,91,2.0,5.0,18,0.00,,,0.00,VWS V14.01,2013-06-03 15:57:00,
2013-06-03 09:00:00,65.7,22.3,23.84,East,91,0.0,5.0,19,0.00,,,0.00,VWS V14.01,2013-06-03 16:00:00,
2013-06-03 09:02:00,65.9,22.5,23.84,South,173,4.0,4.0,19,0.00,,,0.00,VWS V14.01,2013-06-03 16:02:00,
2013-06-03 09:07:00,66.1,25.1,23.84,SSW,195,0.0,4.0,21,0.00,,,0.00,VWS V14.01,2013-06-03 16:07:00,
2013-06-03 09:12:00,66.3,26.4,23.84,SSE,167,0.0,5.0,22,0.00,,,0.00,VWS V14.01,2013-06-03 16:12:00,
2013-06-03 09:17:00,66.5,27.6,23.84,SSE,147,0.0,5.0,23,0.00,,,0.00,VWS V14.01,2013-06-03 16:17:00,
2013-06-03 09:22:00,66.6,28.7,23.84,SSE,147,0.0,5.0,24,0.00,,,0.00,VWS V14.01,2013-06-03 16:22:00,
2013-06-03 09:27:00,66.8,28.9,23.84,SE,144,0.0,5.0,24,0.00,,,0.00,VWS V14.01,2013-06-03 16:27:00,
2013-06-03 09:30:00,66.9,30.0,23.84,SE,144,0.0,5.0,25,0.00,,,0.00,VWS V14.01,2013-06-03 16:30:00,
2013-06-03 09:32:00,67.1,30.1,23.84,SSW,198,0.0,4.0,25,0.00,,,0.00,VWS V14.01,2013-06-03 16:32:00,
2013-06-03 09:37:00,67.1,31.1,23.84,South,176,0.0,6.0,26,0.00,,,0.00,VWS V14.01,2013-06-03 16:37:00,
2013-06-03 09:42:00,67.1,32.0,23.84,South,180,4.0,6.0,27,0.00,,,0.00,VWS V14.01,2013-06-03 16:42:00,
2013-06-03 09:47:00,67.3,32.2,23.84,SSE,157,0.0,6.0,27,0.00,,,0.00,VWS V14.01,2013-06-03 16:47:00,
2013-06-03 09:52:00,67.4,32.3,23.84,SSE,165,2.0,6.0,27,0.00,,,0.00,VWS V14.01,2013-06-03 16:52:00,
2013-06-03 09:57:00,67.3,33.1,23.84,South,188,0.0,6.0,28,0.00,,,0.00,VWS V14.01,2013-06-03 16:57:00,
2013-06-03 10:00:00,67.4,33.2,23.84,South,176,1.0,6.0,28,0.00,,,0.00,VWS V14.01,2013-06-03 17:00:00,
2013-06-03 10:02:00,67.5,33.3,23.84,South,177,4.0,6.0,28,0.00,,,0.00,VWS V14.01,2013-06-03 17:02:00,
2013-06-03 10:07:00,67.5,34.2,23.84,SSW,195,1.0,6.0,29,0.00,,,0.00,VWS V14.01,2013-06-03 17:07:00,
2013-06-03 10:12:00,67.4,33.2,23.84,SW,223,5.0,6.0,28,0.00,,,0.00,VWS V14.01,2013-06-03 17:12:00,
2013-06-03 10:17:00,67.6,33.4,23.84,ESE,115,0.0,6.0,28,0.00,,,0.00,VWS V14.01,2013-06-03 17:17:00,
2013-06-03 10:22:00,67.7,34.3,23.84,South,174,4.0,7.0,29,0.00,,,0.00,VWS V14.01,2013-06-03 17:22:00,
2013-06-03 10:27:00,68.0,34.6,23.84,South,188,0.0,7.0,29,0.00,,,0.00,VWS V14.01,2013-06-03 17:27:00,
2013-06-03 10:30:00,68.0,34.6,23.84,South,188,0.0,7.0,29,0.00,,,0.00,VWS V14.01,2013-06-03 17:30:00,
2013-06-03 10:32:00,67.9,34.5,23.84,SSE,163,5.0,6.0,29,0.00,,,0.00,VWS V14.01,2013-06-03 17:32:00,
2013-06-03 10:37:00,67.8,34.4,23.84,South,178,4.0,9.0,29,0.00,,,0.00,VWS V14.01,2013-06-03 17:37:00,
2013-06-03 10:42:00,67.8,35.3,23.84,South,180,3.0,12.0,30,0.00,,,0.00,VWS V14.01,2013-06-03 17:42:00,
2013-06-03 10:47:00,68.0,34.6,23.84,South,188,4.0,12.0,29,0.00,,,0.00,VWS V14.01,2013-06-03 17:47:00,
2013-06-03 10:52:00,67.6,35.1,23.84,SW,232,3.0,12.0,30,0.00,,,0.00,VWS V14.01,2013-06-03 17:52:00,
2013-06-03 10:57:00,67.3,34.8,23.84,South,169,4.0,12.0,30,0.00,,,0.00,VWS V14.01,2013-06-03 17:57:00,
2013-06-03 11:00:00,67.3,34.8,23.84,SE,140,1.0,12.0,30,0.00,,,0.00,VWS V14.01,2013-06-03 18:00:00,
2013-06-03 11:02:00,67.9,35.3,23.84,SSE,154,4.0,5.0,30,0.00,,,0.00,VWS V14.01,2013-06-03 18:02:00,
2013-06-03 11:07:00,68.8,35.3,23.84,WSW,237,6.0,7.0,29,0.00,,,0.00,VWS V14.01,2013-06-03 18:07:00,
2013-06-03 11:12:00,68.7,36.0,23.84,South,170,5.0,9.0,30,0.00,,,0.00,VWS V14.01,2013-06-03 18:12:00,
2013-06-03 11:17:00,68.3,35.7,23.84,SW,226,4.0,9.0,30,0.00,,,0.00,VWS V14.01,2013-06-03 18:17:00,
2013-06-03 11:22:00,68.6,36.0,23.84,WSW,241,8.0,9.0,30,0.00,,,0.00,VWS V14.01,2013-06-03 18:22:00,
2013-06-03 11:27:00,68.4,35.8,23.84,SSE,163,0.0,10.0,30,0.00,,,0.00,VWS V14.01,2013-06-03 18:27:00,
2013-06-03 11:30:00,68.9,35.4,23.84,South,183,4.0,10.0,29,0.00,,,0.00,VWS V14.01,2013-06-03 18:30:00,
2013-06-03 11:32:00,69.1,36.4,23.84,WSW,255,3.0,7.0,30,0.00,,,0.00,VWS V14.01,2013-06-03 18:32:00,
2013-06-03 11:37:00,68.7,36.0,23.84,West,267,5.0,7.0,30,0.00,,,0.00,VWS V14.01,2013-06-03 18:37:00,
2013-06-03 11:42:00,68.3,35.7,23.84,South,184,4.0,8.0,30,0.00,,,0.00,VWS V14.01,2013-06-03 18:42:00,
2013-06-03 11:47:00,67.7,35.2,23.84,West,265,1.0,9.0,30,0.00,,,0.00,VWS V14.01,2013-06-03 18:47:00,
2013-06-03 11:52:00,68.0,34.6,23.84,SW,216,0.0,9.0,29,0.00,,,0.00,VWS V14.01,2013-06-03 18:52:00,
2013-06-03 11:57:00,67.5,34.2,23.84,SSW,207,4.0,10.0,29,0.00,,,0.00,VWS V14.01,2013-06-03 18:57:00,
2013-06-03 12:00:00,67.5,34.2,23.84,SW,221,8.0,10.0,29,0.00,,,0.00,VWS V14.01,2013-06-03 19:00:00,
2013-06-03 12:02:00,67.6,34.2,23.84,SW,233,8.0,10.0,29,0.00,,,0.00,VWS V14.01,2013-06-03 19:02:00,
2013-06-03 12:07:00,67.1,33.8,23.84,WNW,301,3.0,10.0,29,0.00,,,0.00,VWS V14.01,2013-06-03 19:07:00,
2013-06-03 12:12:00,67.6,33.4,23.84,West,259,5.0,10.0,28,0.00,,,0.00,VWS V14.01,2013-06-03 19:12:00,
2013-06-03 12:17:00,67.4,34.1,21.85,WSW,240,6.0,11.0,29,0.00,,,0.00,VWS V14.01,2013-06-03 19:17:00,
2013-06-03 12:22:00,66.8,33.5,21.85,West,260,4.0,11.0,29,0.00,,,0.00,VWS V14.01,2013-06-03 19:22:00,
2013-06-03 12:27:00,67.3,33.1,21.85,SW,223,8.0,11.0,28,0.00,,,0.00,VWS V14.01,2013-06-03 19:27:00,
2013-06-03 12:30:00,67.2,33.0,21.85,SSW,194,6.0,11.0,28,0.00,,,0.00,VWS V14.01,2013-06-03 19:30:00,
2013-06-03 12:32:00,67.9,33.6,21.85,SW,231,2.0,7.0,28,0.00,,,0.00,VWS V14.01,2013-06-03 19:32:00,
2013-06-03 12:37:00,67.7,34.3,21.85,WSW,250,7.0,11.0,29,0.00,,,0.00,VWS V14.01,2013-06-03 19:37:00,
2013-06-03 12:42:00,67.1,33.8,21.85,SSW,203,2.0,11.0,29,0.00,,,0.00,VWS V14.01,2013-06-03 19:42:00,
2013-06-03 12:47:00,67.1,33.8,21.85,South,187,3.0,11.0,29,0.00,,,0.00,VWS V14.01,2013-06-03 19:47:00,
2013-06-03 12:52:00,67.5,34.2,21.85,SW,223,4.0,11.0,29,0.00,,,0.00,VWS V14.01,2013-06-03 19:52:00,
2013-06-03 12:57:00,68.3,34.0,21.85,SSW,201,4.0,11.0,28,0.00,,,0.00,VWS V14.01,2013-06-03 19:57:00,
2013-06-03 13:00:00,68.2,34.8,21.85,SW,215,6.0,11.0,29,0.00,,,0.00,VWS V14.01,2013-06-03 20:00:00,
2013-06-03 13:02:00,67.5,34.2,21.85,WSW,244,4.0,8.0,29,0.00,,,0.00,VWS V14.01,2013-06-03 20:02:00,
2013-06-03 13:07:00,66.8,33.5,21.85,SW,228,5.0,10.0,29,0.00,,,0.00,VWS V14.01,2013-06-03 20:07:00,
2013-06-03 13:12:00,67.2,33.9,21.85,SW,232,7.0,10.0,29,0.00,,,0.00,VWS V14.01,2013-06-03 20:12:00,
2013-06-03 13:17:00,67.2,33.9,21.85,WSW,237,3.0,10.0,29,0.00,,,0.00,VWS V14.01,2013-06-03 20:17:00,
2013-06-03 13:22:00,68.2,33.9,21.85,WSW,238,5.0,10.0,28,0.00,,,0.00,VWS V14.01,2013-06-03 20:22:00,
2013-06-03 13:27:00,67.8,34.4,21.85,SW,236,8.0,10.0,29,0.00,,,0.00,VWS V14.01,2013-06-03 20:27:00,
2013-06-03 13:30:00,67.4,34.1,21.85,SW,236,6.0,10.0,29,0.00,,,0.00,VWS V14.01,2013-06-03 20:30:00,
2013-06-03 13:32:00,66.9,34.5,21.85,WSW,257,2.0,11.0,30,0.00,,,0.00,VWS V14.01,2013-06-03 20:32:00,
2013-06-03 13:37:00,67.1,33.8,21.85,West,263,2.0,11.0,29,0.00,,,0.00,VWS V14.01,2013-06-03 20:37:00,
2013-06-03 13:42:00,66.9,33.6,21.85,South,189,2.0,11.0,29,0.00,,,0.00,VWS V14.01,2013-06-03 20:42:00,
2013-06-03 13:47:00,68.0,34.6,21.85,WSW,255,1.0,11.0,29,0.00,,,0.00,VWS V14.01,2013-06-03 20:47:00,
2013-06-03 13:52:00,68.0,35.4,21.85,WSW,246,8.0,11.0,30,0.00,,,0.00,VWS V14.01,2013-06-03 20:52:00,
2013-06-03 13:57:00,67.0,35.4,21.85,WSW,257,3.0,11.0,31,0.00,,,0.00,VWS V14.01,2013-06-03 20:57:00,
2013-06-03 14:00:00,67.0,34.6,21.85,WSW,242,9.0,11.0,30,0.00,,,0.00,VWS V14.01,2013-06-03 21:00:00,
2013-06-03 14:02:00,66.4,34.9,21.85,WSW,237,3.0,10.0,31,0.00,,,0.00,VWS V14.01,2013-06-03 21:02:00,
2013-06-03 14:07:00,66.6,34.2,21.85,SSW,198,3.0,10.0,30,0.00,,,0.00,VWS V14.01,2013-06-03 21:07:00,
2013-06-03 14:12:00,67.0,34.6,21.85,SW,225,9.0,10.0,30,0.00,,,0.00,VWS V14.01,2013-06-03 21:12:00,
2013-06-03 14:17:00,66.2,33.9,21.85,South,184,6.0,12.0,30,0.00,,,0.00,VWS V14.01,2013-06-03 21:17:00,
2013-06-03 14:22:00,66.2,33.9,21.85,South,177,1.0,12.0,30,0.00,,,0.00,VWS V14.01,2013-06-03 21:22:00,
2013-06-03 14:27:00,66.3,34.0,21.85,SSW,200,3.0,12.0,30,0.00,,,0.00,VWS V14.01,2013-06-03 21:27:00,
2013-06-03 14:30:00,66.3,34.0,21.85,SSW,198,8.0,12.0,30,0.00,,,0.00,VWS V14.01,2013-06-03 21:30:00,
2013-06-03 14:32:00,66.4,34.0,21.85,SW,219,6.0,9.0,30,0.00,,,0.00,VWS V14.01,2013-06-03 21:32:00,
2013-06-03 14:37:00,66.5,34.1,21.85,NW,305,4.0,10.0,30,0.00,,,0.00,VWS V14.01,2013-06-03 21:37:00,
2013-06-03 14:42:00,66.5,34.1,21.85,West,259,5.0,13.0,30,0.00,,,0.00,VWS V14.01,2013-06-03 21:42:00,
2013-06-03 14:47:00,66.1,33.8,21.85,WSW,243,0.0,13.0,30,0.00,,,0.00,VWS V14.01,2013-06-03 21:47:00,
2013-06-03 14:52:00,67.1,33.8,21.85,SW,235,10.0,13.0,29,0.00,,,0.00,VWS V14.01,2013-06-03 21:52:00,
2013-06-03 14:57:00,67.1,34.7,21.85,WSW,250,5.0,13.0,30,0.00,,,0.00,VWS V14.01,2013-06-03 21:57:00,
2013-06-03 15:00:00,67.0,35.4,21.85,SW,217,6.0,13.0,31,0.00,,,0.00,VWS V14.01,2013-06-03 22:00:00,
2013-06-03 15:02:00,66.9,34.5,21.85,SW,216,7.0,9.0,30,0.00,,,0.00,VWS V14.01,2013-06-03 22:02:00,
2013-06-03 15:07:00,66.6,34.2,21.85,SSW,209,6.0,14.0,30,0.00,,,0.00,VWS V14.01,2013-06-03 22:07:00,
2013-06-03 15:12:00,66.4,34.9,21.85,WSW,255,9.0,14.0,31,0.00,,,0.00,VWS V14.01,2013-06-03 22:12:00,
2013-06-03 15:17:00,66.8,34.4,21.85,South,175,4.0,14.0,30,0.00,,,0.00,VWS V14.01,2013-06-03 22:17:00,
2013-06-03 15:22:00,66.6,35.0,21.85,South,186,1.0,14.0,31,0.00,,,0.00,VWS V14.01,2013-06-03 22:22:00,
2013-06-03 15:27:00,66.8,35.2,21.85,SSW,204,1.0,14.0,31,0.00,,,0.00,VWS V14.01,2013-06-03 22:27:00,
2013-06-03 15:30:00,66.8,35.2,21.85,South,188,4.0,14.0,31,0.00,,,0.00,VWS V14.01,2013-06-03 22:30:00,
2013-06-03 15:32:00,66.3,34.8,21.85,WSW,238,5.0,12.0,31,0.00,,,0.00,VWS V14.01,2013-06-03 22:32:00,
2013-06-03 15:37:00,66.9,35.3,21.85,SW,229,3.0,12.0,31,0.00,,,0.00,VWS V14.01,2013-06-03 22:37:00,
2013-06-03 15:42:00,66.9,35.3,21.85,SW,225,3.0,12.0,31,0.00,,,0.00,VWS V14.01,2013-06-03 22:42:00,
2013-06-03 15:47:00,66.9,35.3,21.85,WSW,240,3.0,12.0,31,0.00,,,0.00,VWS V14.01,2013-06-03 22:47:00,
2013-06-03 15:52:00,67.2,35.6,21.85,WNW,288,1.0,12.0,31,0.00,,,0.00,VWS V14.01,2013-06-03 22:52:00,
2013-06-03 15:57:00,67.2,35.6,21.85,SSW,213,4.0,13.0,31,0.00,,,0.00,VWS V14.01,2013-06-03 22:57:00,
2013-06-03 16:00:00,67.3,35.7,21.85,WSW,255,5.0,13.0,31,0.00,,,0.00,VWS V14.01,2013-06-03 23:00:00,
2013-06-03 16:02:00,67.5,35.8,21.85,SW,225,3.0,8.0,31,0.00,,,0.00,VWS V14.01,2013-06-03 23:02:00,
2013-06-03 16:07:00,67.4,35.7,21.85,WNW,288,2.0,11.0,31,0.00,,,0.00,VWS V14.01,2013-06-03 23:07:00,
2013-06-03 16:12:00,67.3,36.5,21.85,SSW,209,3.0,11.0,32,0.00,,,0.00,VWS V14.01,2013-06-03 23:12:00,
2013-06-03 16:17:00,67.4,36.5,21.85,WNW,301,3.0,11.0,32,0.00,,,0.00,VWS V14.01,2013-06-03 23:17:00,
2013-06-03 16:22:00,67.2,36.4,21.85,WSW,242,4.0,11.0,32,0.00,,,0.00,VWS V14.01,2013-06-03 23:22:00,
2013-06-03 16:27:00,67.4,36.5,21.85,West,272,2.0,11.0,32,0.00,,,0.00,VWS V14.01,2013-06-03 23:27:00,
2013-06-03 16:30:00,67.5,36.6,21.85,WNW,282,8.0,11.0,32,0.00,,,0.00,VWS V14.01,2013-06-03 23:30:00,
2013-06-03 16:32:00,67.3,36.5,21.85,West,281,3.0,11.0,32,0.00,,,0.00,VWS V14.01,2013-06-03 23:32:00,
2013-06-03 16:37:00,67.7,36.8,21.85,West,281,4.0,11.0,32,0.00,,,0.00,VWS V14.01,2013-06-03 23:37:00,
2013-06-03 16:42:00,67.9,37.0,21.85,WSW,238,8.0,11.0,32,0.00,,,0.00,VWS V14.01,2013-06-03 23:42:00,
2013-06-03 16:47:00,68.2,37.2,21.85,WNW,292,10.0,11.0,32,0.00,,,0.00,VWS V14.01,2013-06-03 23:47:00,
2013-06-03 16:52:00,67.9,37.0,21.85,WSW,251,2.0,13.0,32,0.00,,,0.00,VWS V14.01,2013-06-03 23:52:00,
2013-06-03 16:57:00,67.9,37.0,21.85,WNW,284,7.0,13.0,32,0.00,,,0.00,VWS V14.01,2013-06-03 23:57:00,
2013-06-03 17:00:00,67.9,37.0,21.85,SW,227,6.0,13.0,32,0.00,,,0.00,VWS V14.01,2013-06-04 00:00:00,
2013-06-03 17:02:00,67.4,37.3,21.85,West,263,3.0,8.0,33,0.00,,,0.00,VWS V14.01,2013-06-04 00:02:00,
2013-06-03 17:07:00,67.9,37.0,21.85,WSW,238,6.0,8.0,32,0.00,,,0.00,VWS V14.01,2013-06-04 00:07:00,
2013-06-03 17:12:00,67.2,37.2,21.85,SW,225,8.0,11.0,33,0.00,,,0.00,VWS V14.01,2013-06-04 00:12:00,
2013-06-03 17:17:00,67.4,36.5,21.85,SW,236,8.0,11.0,32,0.00,,,0.00,VWS V14.01,2013-06-04 00:17:00,
2013-06-03 17:22:00,67.4,37.3,21.85,SSW,211,1.0,11.0,33,0.00,,,0.00,VWS V14.01,2013-06-04 00:22:00,
2013-06-03 17:27:00,67.5,37.4,21.85,NW,307,9.0,11.0,33,0.00,,,0.00,VWS V14.01,2013-06-04 00:27:00,
2013-06-03 17:30:00,67.7,37.6,21.85,WSW,254,5.0,11.0,33,0.00,,,0.00,VWS V14.01,2013-06-04 00:30:00,
2013-06-03 17:32:00,67.8,37.7,21.85,WSW,238,6.0,8.0,33,0.00,,,0.00,VWS V14.01,2013-06-04 00:32:00,
2013-06-03 17:37:00,67.4,37.3,21.85,WNW,290,0.0,9.0,33,0.00,,,0.00,VWS V14.01,2013-06-04 00:37:00,
2013-06-03 17:42:00,67.5,37.4,21.85,SW,236,7.0,10.0,33,0.00,,,0.00,VWS V14.01,2013-06-04 00:42:00,
2013-06-03 17:47:00,67.2,37.2,21.85,SSW,211,3.0,10.0,33,0.00,,,0.00,VWS V14.01,2013-06-04 00:47:00,
2013-06-03 17:52:00,67.4,36.5,21.85,SW,225,4.0,10.0,32,0.00,,,0.00,VWS V14.01,2013-06-04 00:52:00,
2013-06-03 17:57:00,67.6,36.7,21.85,WSW,257,2.0,10.0,32,0.00,,,0.00,VWS V14.01,2013-06-04 00:57:00,
2013-06-03 18:00:00,67.4,36.5,21.85,WNW,282,4.0,10.0,32,0.00,,,0.00,VWS V14.01,2013-06-04 01:00:00,
2013-06-03 18:02:00,67.2,36.4,21.85,SSW,210,6.0,8.0,32,0.00,,,0.00,VWS V14.01,2013-06-04 01:02:00,
2013-06-03 18:07:00,67.0,36.2,21.85,WSW,250,8.0,9.0,32,0.00,,,0.00,VWS V14.01,2013-06-04 01:07:00,
2013-06-03 18:12:00,66.8,36.0,21.85,SW,216,7.0,9.0,32,0.00,,,0.00,VWS V14.01,2013-06-04 01:12:00,
2013-06-03 18:17:00,66.8,35.2,21.85,WSW,250,0.0,9.0,31,0.00,,,0.00,VWS V14.01,2013-06-04 01:17:00,
2013-06-03 18:22:00,66.8,35.2,21.85,West,260,8.0,9.0,31,0.00,,,0.00,VWS V14.01,2013-06-04 01:22:00,
2013-06-03 18:27:00,66.2,34.7,21.85,SW,220,5.0,9.0,31,0.00,,,0.00,VWS V14.01,2013-06-04 01:27:00,
2013-06-03 18:30:00,66.0,34.5,21.85,SW,217,6.0,9.0,31,0.00,,,0.00,VWS V14.01,2013-06-04 01:30:00,
2013-06-03 18:32:00,65.4,34.0,21.85,WSW,238,11.0,13.0,31,0.00,,,0.00,VWS V14.01,2013-06-04 01:32:00,
2013-06-03 18:37:00,65.3,33.1,21.85,WSW,242,6.0,13.0,30,0.00,,,0.00,VWS V14.01,2013-06-04 01:37:00,
2013-06-03 18:42:00,64.9,31.9,21.85,SSW,211,7.0,13.0,29,0.00,,,0.00,VWS V14.01,2013-06-04 01:42:00,
2013-06-03 18:47:00,64.6,31.6,21.85,WSW,246,5.0,13.0,29,0.00,,,0.00,VWS V14.01,2013-06-04 01:47:00,
2013-06-03 18:52:00,64.7,30.9,21.85,NW,308,3.0,13.0,28,0.00,,,0.00,VWS V14.01,2013-06-04 01:52:00,
2013-06-03 18:57:00,64.4,30.6,21.85,WNW,290,5.0,13.0,28,0.00,,,0.00,VWS V14.01,2013-06-04 01:57:00,
2013-06-03 19:00:00,64.3,30.5,21.85,WNW,294,4.0,13.0,28,0.00,,,0.00,VWS V14.01,2013-06-04 02:00:00,
2013-06-03 19:02:00,64.0,30.3,21.85,West,263,4.0,9.0,28,0.00,,,0.00,VWS V14.01,2013-06-04 02:02:00,
2013-06-03 19:07:00,64.0,29.4,21.85,SSW,213,5.0,9.0,27,0.00,,,0.00,VWS V14.01,2013-06-04 02:07:00,
2013-06-03 19:12:00,63.5,29.0,21.85,WSW,257,5.0,11.0,27,0.00,,,0.00,VWS V14.01,2013-06-04 02:12:00,
2013-06-03 19:17:00,63.5,29.0,21.85,West,271,3.0,11.0,27,0.00,,,0.00,VWS V14.01,2013-06-04 02:17:00,
2013-06-03 19:22:00,63.4,27.9,21.85,SSW,202,4.0,11.0,26,0.00,,,0.00,VWS V14.01,2013-06-04 02:22:00,
2013-06-03 19:27:00,63.2,27.8,21.85,WSW,239,5.0,11.0,26,0.00,,,0.00,VWS V14.01,2013-06-04 02:27:00,
2013-06-03 19:30:00,63.1,27.7,21.85,SW,236,4.0,11.0,26,0.00,,,0.00,VWS V14.01,2013-06-04 02:30:00,
2013-06-03 19:32:00,63.0,27.6,21.85,WNW,282,5.0,8.0,26,0.00,,,0.00,VWS V14.01,2013-06-04 02:32:00,
2013-06-03 19:37:00,62.8,26.5,21.85,WSW,247,0.0,9.0,25,0.00,,,0.00,VWS V14.01,2013-06-04 02:37:00,
2013-06-03 19:42:00,62.6,26.3,21.85,West,266,0.0,9.0,25,0.00,,,0.00,VWS V14.01,2013-06-04 02:42:00,
2013-06-03 19:47:00,62.5,25.2,21.85,WSW,237,3.0,9.0,24,0.00,,,0.00,VWS V14.01,2013-06-04 02:47:00,
2013-06-03 19:52:00,62.2,25.0,21.85,West,259,2.0,9.0,24,0.00,,,0.00,VWS V14.01,2013-06-04 02:52:00,
2013-06-03 19:57:00,62.1,23.9,21.85,WSW,251,0.0,9.0,23,0.00,,,0.00,VWS V14.01,2013-06-04 02:57:00,
2013-06-03 20:00:00,62.1,23.9,21.85,SW,234,4.0,9.0,23,0.00,,,0.00,VWS V14.01,2013-06-04 03:00:00,
2013-06-03 20:02:00,62.0,22.8,21.85,West,269,5.0,7.0,22,0.00,,,0.00,VWS V14.01,2013-06-04 03:02:00,
2013-06-03 20:07:00,61.8,22.6,21.85,WSW,248,4.0,8.0,22,0.00,,,0.00,VWS V14.01,2013-06-04 03:07:00,
2013-06-03 20:12:00,61.7,21.4,21.85,SW,230,0.0,8.0,21,0.00,,,0.00,VWS V14.01,2013-06-04 03:12:00,
2013-06-03 20:17:00,61.6,21.3,21.85,WSW,247,0.0,8.0,21,0.00,,,0.00,VWS V14.01,2013-06-04 03:17:00,
2013-06-03 20:22:00,61.5,20.1,21.85,West,270,3.0,8.0,20,0.00,,,0.00,VWS V14.01,2013-06-04 03:22:00,
2013-06-03 20:27:00,61.6,20.2,21.85,West,265,3.0,8.0,20,0.00,,,0.00,VWS V14.01,2013-06-04 03:27:00,
2013-06-03 20:30:00,61.6,20.2,21.85,West,263,2.0,8.0,20,0.00,,,0.00,VWS V14.01,2013-06-04 03:30:00,
2013-06-03 20:32:00,61.6,20.2,21.85,WSW,244,0.0,5.0,20,0.00,,,0.00,VWS V14.01,2013-06-04 03:32:00,
2013-06-03 20:37:00,61.6,19.0,21.85,West,279,0.0,5.0,19,0.00,,,0.00,VWS V14.01,2013-06-04 03:37:00,
2013-06-03 20:42:00,61.4,18.8,21.85,West,280,4.0,5.0,19,0.00,,,0.00,VWS V14.01,2013-06-04 03:42:00,
2013-06-03 20:47:00,61.3,18.7,21.85,WNW,303,0.0,5.0,19,0.00,,,0.00,VWS V14.01,2013-06-04 03:47:00,
2013-06-03 20:52:00,61.1,18.5,21.85,WSW,254,0.0,5.0,19,0.00,,,0.00,VWS V14.01,2013-06-04 03:52:00,
2013-06-03 20:57:00,61.1,18.5,21.85,WSW,254,1.0,5.0,19,0.00,,,0.00,VWS V14.01,2013-06-04 03:57:00,
2013-06-03 21:00:00,61.1,18.5,21.85,WSW,255,3.0,5.0,19,0.00,,,0.00,VWS V14.01,2013-06-04 04:00:00,
2013-06-03 21:01:00,61.1,18.5,21.85,WSW,250,0.0,5.0,19,0.00,,,0.00,VWS V14.01,2013-06-04 04:01:00,
2013-06-03 21:02:00,61.1,18.5,21.85,WSW,250,2.0,5.0,19,0.00,,,0.00,VWS V14.01,2013-06-04 04:02:00,
2013-06-03 21:03:00,61.1,18.5,21.85,WSW,250,0.0,5.0,19,0.00,,,0.00,VWS V14.01,2013-06-04 04:03:00,
2013-06-03 21:08:00,61.0,18.5,21.85,WSW,250,1.0,5.0,19,0.00,,,0.00,VWS V14.01,2013-06-04 04:08:00,
2013-06-03 21:13:00,61.0,18.5,21.85,WSW,250,2.0,5.0,19,0.00,,,0.00,VWS V14.01,2013-06-04 04:13:00,
2013-06-03 21:18:00,60.9,18.4,21.85,WSW,250,4.0,5.0,19,0.00,,,0.00,VWS V14.01,2013-06-04 04:18:00,
2013-06-03 21:23:00,60.9,18.4,21.85,WSW,250,0.0,5.0,19,0.00,,,0.00,VWS V14.01,2013-06-04 04:23:00,
2013-06-03 21:28:00,60.9,18.4,21.85,West,265,1.0,5.0,19,0.00,,,0.00,VWS V14.01,2013-06-04 04:28:00,
2013-06-03 21:30:00,60.9,18.4,21.85,West,265,0.0,5.0,19,0.00,,,0.00,VWS V14.01,2013-06-04 04:30:00,
2013-06-03 21:33:00,60.9,18.4,21.85,West,269,0.0,4.0,19,0.00,,,0.00,VWS V14.01,2013-06-04 04:33:00,
2013-06-03 21:38:00,60.9,18.4,21.85,West,266,0.0,4.0,19,0.00,,,0.00,VWS V14.01,2013-06-04 04:38:00,
2013-06-03 21:43:00,60.8,18.3,21.85,West,265,2.0,4.0,19,0.00,,,0.00,VWS V14.01,2013-06-04 04:43:00,
2013-06-03 21:48:00,60.8,18.3,21.85,West,264,0.0,4.0,19,0.00,,,0.00,VWS V14.01,2013-06-04 04:48:00,
2013-06-03 21:53:00,60.8,18.3,21.85,West,264,0.0,4.0,19,0.00,,,0.00,VWS V14.01,2013-06-04 04:53:00,
2013-06-03 21:58:00,60.8,18.3,21.85,West,264,3.0,4.0,19,0.00,,,0.00,VWS V14.01,2013-06-04 04:58:00,
2013-06-03 22:00:00,60.8,18.3,21.85,West,264,0.0,4.0,19,0.00,,,0.00,VWS V14.01,2013-06-04 05:00:00,
2013-06-03 22:03:00,60.8,18.3,21.85,West,264,0.0,4.0,19,0.00,,,0.00,VWS V14.01,2013-06-04 05:03:00,
2013-06-03 22:08:00,60.8,18.3,21.85,West,264,1.0,4.0,19,0.00,,,0.00,VWS V14.01,2013-06-04 05:08:00,
2013-06-03 22:13:00,60.8,18.3,21.85,West,264,0.0,4.0,19,0.00,,,0.00,VWS V14.01,2013-06-04 05:13:00,
2013-06-03 22:18:00,60.7,18.2,21.85,West,264,1.0,4.0,19,0.00,,,0.00,VWS V14.01,2013-06-04 05:18:00,
2013-06-03 22:23:00,60.7,18.2,21.85,West,264,0.0,4.0,19,0.00,,,0.00,VWS V14.01,2013-06-04 05:23:00,
2013-06-03 22:28:00,60.6,18.1,21.85,West,264,0.0,4.0,19,0.00,,,0.00,VWS V14.01,2013-06-04 05:28:00,
2013-06-03 22:30:00,60.7,18.2,21.85,West,264,0.0,4.0,19,0.00,,,0.00,VWS V14.01,2013-06-04 05:30:00,
2013-06-03 22:33:00,60.6,16.9,21.85,West,264,1.0,2.0,18,0.00,,,0.00,VWS V14.01,2013-06-04 05:33:00,
2013-06-03 22:38:00,60.6,16.9,21.85,West,264,0.0,3.0,18,0.00,,,0.00,VWS V14.01,2013-06-04 05:38:00,
2013-06-03 22:43:00,60.6,16.9,21.85,West,264,0.0,4.0,18,0.00,,,0.00,VWS V14.01,2013-06-04 05:43:00,
2013-06-03 22:48:00,60.6,16.9,21.85,West,264,0.0,4.0,18,0.00,,,0.00,VWS V14.01,2013-06-04 05:48:00,
2013-06-03 22:53:00,60.6,16.9,21.85,West,264,0.0,4.0,18,0.00,,,0.00,VWS V14.01,2013-06-04 05:53:00,
2013-06-03 22:58:00,60.6,16.9,21.85,West,264,0.0,4.0,18,0.00,,,0.00,VWS V14.01,2013-06-04 05:58:00,
2013-06-03 23:00:00,60.6,16.9,21.85,West,264,0.0,4.0,18,0.00,,,0.00,VWS V14.01,2013-06-04 06:00:00,
2013-06-03 23:03:00,60.7,17.0,21.85,West,264,1.0,2.0,18,0.00,,,0.00,VWS V14.01,2013-06-04 06:03:00,
2013-06-03 23:08:00,60.8,17.0,21.85,West,265,0.0,3.0,18,0.00,,,0.00,VWS V14.01,2013-06-04 06:08:00,
2013-06-03 23:13:00,60.8,17.0,21.85,West,265,2.0,3.0,18,0.00,,,0.00,VWS V14.01,2013-06-04 06:13:00,
2013-06-03 23:18:00,60.9,17.1,21.85,West,265,1.0,3.0,18,0.00,,,0.00,VWS V14.01,2013-06-04 06:18:00,
2013-06-03 23:23:00,60.8,18.3,21.85,West,265,0.0,3.0,19,0.00,,,0.00,VWS V14.01,2013-06-04 06:23:00,
2013-06-03 23:28:00,60.9,18.4,21.85,West,265,0.0,3.0,19,0.00,,,0.00,VWS V14.01,2013-06-04 06:28:00,
2013-06-03 23:30:00,60.9,18.4,21.85,West,265,0.0,3.0,19,0.00,,,0.00,VWS V14.01,2013-06-04 06:30:00,
2013-06-03 23:33:00,60.9,18.4,21.85,West,265,1.0,2.0,19,0.00,,,0.00,VWS V14.01,2013-06-04 06:33:00,
2013-06-03 23:38:00,60.9,18.4,21.85,West,265,0.0,2.0,19,0.00,,,0.00,VWS V14.01,2013-06-04 06:38:00,
2013-06-03 23:43:00,61.0,18.5,21.85,West,265,0.0,2.0,19,0.00,,,0.00,VWS V14.01,2013-06-04 06:43:00,
2013-06-03 23:48:00,61.0,18.5,21.85,West,265,0.0,2.0,19,0.00,,,0.00,VWS V14.01,2013-06-04 06:48:00,
2013-06-03 23:53:00,61.1,18.5,21.85,West,265,0.0,3.0,19,0.00,,,0.00,VWS V14.01,2013-06-04 06:53:00,
2013-06-03 23:58:00,61.1,18.5,21.85,West,265,0.0,3.0,19,0.00,,,0.00,VWS V14.01,2013-06-04 06:58:00,